BEIDOU-3 M14

Last updated on Jan. 19, 2020, 4:37 a.m. UTC

1 43623U 18072B   20018.34696904  .00000007  00000-0  00000-0 0  9995
2 43623  55.0897 140.9982 0003318 319.8277 126.5437  1.86231674  9048
UTC
Height (km)
Latitude
Longitude
Inclination
Orbital Period
UTC large
Height (km)
Speed (km/s)
/
Latitude / Longitude
Inclination (degrees)
Orbital Period (minutes)
Azimuth
Elevation
Range (km)
Doppler Factor
iOS Compass Heading
iOS Angle

Next 30 passes for location: Hong Kong

Rise time Rise Azimuth (degrees) Set time Set Azimuth (degrees) Duration Max altitude (degrees)

No matching passes for this satellites